Weather History for PAFB - February, 2014

Change the Weather History Date:

Thursday, February 20, 2014

  Actual Average Record
Temperature  
Mean Temperature -17 °F -  
Max Temperature -9 °F 13 °F 44 °F (2008)
Min Temperature -25 °F -1 °F -38 °F (2007)
Degree Days  
Heating Degree Days 82    
Moisture  
Dew Point -26 °F    
Average Humidity 73    
Maximum Humidity 83    
Minimum Humidity 69    
Precipitation  
Precipitation 0.00 in - - ()
Snow  
Snow 0.00 in - - ()
Snow Depth 20.00 in    
Sea Level Pressure  
Sea Level Pressure 30.17 in    
Wind  
Wind Speed 1 mph (East)    
Max Wind Speed 7 mph    
Max Gust Speed -    
Visibility 9 miles    
Events      
Averages and records for this station are not official NWS values.
T = Trace of Precipitation, MM = Missing Value Source: NWS Daily Summary

Daily Weather History Graph

Daily Weather History Graph

Search for Another Location

Airport or City:

Trip Planner

Search our weather history database for the weather conditions in past years. The results will help you decide how hot, cold, wet, or windy it might be!

Date:

Astronomy

Feb. 20, 2014 Rise Set
Actual Time 8:30 AM AKST 5:38 PM AKST
Civil Twilight 7:39 AM AKST 6:29 PM AKST
Nautical Twilight 6:43 AM AKST 7:26 PM AKST
Astronomical Twilight 5:46 AM AKST 8:24 PM AKST
Moon 12:47 AM AKST (2/20) 9:06 AM AKST (2/20)
Length of Visible Light 10h 50m
Length of Day
9h 07m
Waning Gibbous, 69% of the Moon is Illuminated
Feb 20
Waning Gibbous
Feb 22
Last Quarter
Feb 28
New
Mar 8
First Quarter
Mar 16
Full

Hourly Weather History & Observations

Time (AKST) Temp. Windchill Dew Point Humidity Pressure Visibility Wind Dir Wind Speed Gust Speed Precip Events Conditions
12:56 AM -20.9 °F -31.7 °F -27.0 °F 73% 29.98 in 10.0 mi SSE 3.5 mph - N/A   Clear
1:56 AM -20.9 °F - -27.9 °F 70% 30.01 in 10.0 mi Calm Calm - N/A   Clear
2:56 AM -20.9 °F - -27.9 °F 70% 30.03 in 10.0 mi Calm Calm - N/A   Partly Cloudy
3:56 AM -20.0 °F -30.7 °F -24.0 °F 82% 30.05 in 10.0 mi ESE 3.5 mph - N/A   Clear
4:56 AM -24.0 °F - -31.0 °F 70% 30.08 in 10.0 mi Calm Calm - N/A   Clear
5:56 AM -25.1 °F - -31.0 °F 74% 30.10 in 10.0 mi Calm Calm - N/A   Clear
6:30 AM -25.6 °F - -29.2 °F 83% 30.05 in 7.0 mi Calm Calm - N/A   Mostly Cloudy
6:55 AM -25.6 °F - -31.0 °F 76% 30.12 in 7.0 mi Calm Calm - N/A   Mostly Cloudy
7:55 AM -25.6 °F -37.1 °F -32.8 °F 69% 30.13 in 7.0 mi ENE 3.5 mph - N/A   Scattered Clouds
8:55 AM -25.6 °F -37.1 °F -32.8 °F 69% 30.16 in 7.0 mi East 3.5 mph - N/A   Scattered Clouds
9:55 AM -25.6 °F -41.9 °F -32.8 °F 69% 30.18 in 7.0 mi East 5.8 mph - N/A   Scattered Clouds
10:55 AM -16.6 °F -32.9 °F -23.8 °F 70% 30.19 in 10.0 mi East 6.9 mph - N/A   Mostly Cloudy
11:55 AM -14.8 °F - -20.2 °F 77% 30.19 in 10.0 mi Calm Calm - N/A   Mostly Cloudy
12:55 PM -11.2 °F - -18.4 °F 70% 30.22 in 10.0 mi Calm Calm - N/A   Mostly Cloudy
1:55 PM -9.4 °F - -16.6 °F 71% 30.22 in 10.0 mi Calm Calm - N/A   Mostly Cloudy
2:55 PM -13.0 °F - -18.4 °F 77% 30.22 in 10.0 mi Calm Calm - N/A   Mostly Cloudy
3:55 PM -11.2 °F - -18.4 °F 70% 30.23 in 10.0 mi Calm Calm - N/A   Mostly Cloudy
4:55 PM -11.2 °F - -18.4 °F 70% 30.24 in 13.0 mi Calm Calm - N/A   Mostly Cloudy
5:55 PM -11.2 °F - -18.4 °F 70% 30.25 in 13.0 mi Calm Calm - N/A   Mostly Cloudy
6:55 PM -18.4 °F - -23.8 °F 76% 30.25 in 13.0 mi Calm Calm - N/A   Mostly Cloudy
7:55 PM -22.0 °F - -27.4 °F 76% 30.26 in 7.0 mi Calm Calm - N/A   Scattered Clouds
8:55 PM -20.2 °F - -27.4 °F 69% 30.27 in 7.0 mi Calm Calm - N/A   Scattered Clouds
9:55 PM -23.8 °F - -29.2 °F 76% 30.28 in 7.0 mi Calm Calm - N/A   Partly Cloudy
10:56 PM -23.1 °F - -29.0 °F 74% 30.28 in 7.0 mi Calm Calm - N/A   Scattered Clouds
11:56 PM -24.0 °F - -29.0 °F 77% 30.29 in 10.0 mi Calm Calm - N/A   Clear